Flag for Germany Weather past 2 weeks in Oberursel (Taunus), Hesse, Germany

Now
61 °F

Passing clouds.


Feels Like: 61 °F
Forecast: 42 / 60 °F
Wind: 2 mph from East

Location: Frankfurt / M-Flughafen

Current Time: Sep 23, 2014 at 5:16:54 PM

Latest Report: Sep 23, 2014 at 4:00 PM


Visibility: 22 mi

Pressure: 30.14 "Hg

Humidity: 55%

Dew point: 44 °F

Location of Oberursel (Taunus)Location

Historic Weather in Oberursel (Taunus) — Graph

°F

Oberursel (Taunus) temperature yesterday

Maximum temperature yesterday: 57 °F (at 2:00 PM)
Minimum temperature yesterday: 49 °F (at 10:00 PM)
Average temperature yesterday: 54 °F

Past Weeks' High & Low Weather Summary

 TemperatureHumidityPressure
High76 °F (Sep 17, 4:00 PM)98% (Sep 21, 2:00 AM)30.23 "Hg (Sep 21, 2:00 AM)
Low44 °F (Sep 23, 7:00 AM)43% (Sep 9, 6:00 PM)29.85 "Hg (Sep 18, 5:00 PM)
Average62 °F79%30.03 "Hg
* Reported Sep 8 4:00 PM — Sep 23 4:00 PM, Oberursel (Taunus), Weather by CustomWeather, © 2014

Note: Actual official high and low records may vary slightly from our data, if they occured in-between our weather recording intervals... More about our weather records

Advertising

Oberursel (Taunus) weather history for previous 24 hours

 ConditionsComfort  
Time TempWeatherWind HumidityBarometerVisibility
4:00 PM
Sep 23
61 °FPassing clouds.2 mph55%30.14 "Hg22 mi
3:00 PM60 °FScattered clouds.1 mph50%30.16 "Hg22 mi
2:00 PM57 °FScattered clouds.1 mph56%30.18 "Hg22 mi
1:00 PM57 °FScattered clouds.1 mph63%30.20 "Hg19 mi
12:00 PM56 °FPartly sunny.2 mph75%30.21 "Hg11 mi
11:00 AM54 °FScattered clouds.1 mph80%30.22 "Hg12 mi
10:00 AM49 °FPassing clouds.2 mph90%30.23 "Hg11 mi
9:00 AM47 °FPassing clouds.2 mph95%30.21 "Hg7 mi
8:00 AM44 °FFog.2 mph95%30.22 "Hg3 mi
7:00 AM44 °FPassing clouds.2 mph94%30.20 "Hg10 mi
6:00 AM45 °FClear.2 mph95%30.18 "Hg12 mi
4:00 AM44 °FClear.2 mph96%30.17 "Hg12 mi
3:00 AM44 °FClear.1 mph95%30.18 "Hg12 mi
2:00 AM45 °FClear.2 mph95%30.18 "Hg12 mi
1:00 AM46 °FClear.2 mph93%30.18 "Hg12 mi
12:00 AM46 °FClear.2 mph92%30.17 "Hg12 mi
10:00 PM
Sep 22
49 °FClear.3 mph86%30.16 "Hg19 mi
9:00 PM50 °FPassing clouds.3 mph81%30.15 "Hg28 mi
8:00 PM51 °FPassing clouds.3 mph75%30.13 "Hg28 mi
7:00 PM55 °FPassing clouds.3 mph64%30.13 "Hg28 mi
6:00 PM56 °FPassing clouds.5 mph61%30.11 "Hg28 mi
5:00 PM56 °FPassing clouds.6 mph66%30.09 "Hg25 mi
Weather by CustomWeather, © 2014

See weather overviewHow to use our weather pages